User: anonymous   Login
Location: Unspecified
(0.0000°N, 0.0000°E)
Time: 19:47:06
(UTC+00:00)
Language:

Picosat 4 - Orbit

View from above orbital plane
View from above orbital plane
View from above satellite
View from above satellite

Ground track
Ground track

The orbit data is extracted from the following two-line orbital elements,

1 26092U 00004K   18350.93363894 +.00000098 +00000-0 +46461-4 0  9997
2 26092 100.2082 151.0664 0034193 056.6684 303.7766 14.43468041990715
Epoch (UTC): 16 December 2018 22:24:26
Eccentricity: 0.0034193
inclination: 100.2082°
perigee height: 723 km
apogee height: 771 km
right ascension of ascending node: 151.0664°
argument of perigee: 56.6684°
revolutions per day: 14.43468041
mean anomaly at epoch: 303.7766°
orbit number at epoch: 99071

The dashed part of the orbit path shows where the satellite is in the earth's shadow,  

DLR